Change the Weather History Date:

Thursday, November 10, 2011

  Actual Average Record
Temperature  
Mean Temperature 32 °F -  
Max Temperature 50 °F 50 °F 70 °F (1996)
Min Temperature 14 °F 23 °F 3 °F (2012)
Degree Days  
Heating Degree Days 33    
Moisture  
Dew Point 20 °F    
Average Humidity 78    
Maximum Humidity 100    
Minimum Humidity 28    
Precipitation  
Precipitation 0.00 in - - ()
Sea Level Pressure  
Sea Level Pressure 30.20 in    
Wind  
Wind Speed 1 mph (East)    
Max Wind Speed 7 mph    
Max Gust Speed -    
Visibility 9 miles    
Events Fog    
Averages and records for this station are not official NWS values.
T = Trace of Precipitation, MM = Missing Value Source: NWS Daily Summary

Daily Weather History Graph

Daily Weather History Graph

Search for Another Location

Airport or City:

Trip Planner

Search our weather history database for the weather conditions in past years. The results will help you decide how hot, cold, wet, or windy it might be!

Date:

Astronomy

Nov. 10, 2011 Rise Set
Actual Time 6:38 AM PST 4:50 PM PST
Civil Twilight 6:09 AM PST 5:18 PM PST
Nautical Twilight 5:37 AM PST 5:50 PM PST
Astronomical Twilight 5:06 AM PST 6:22 PM PST
Moon 4:41 PM PST (11/10) 6:35 AM PST (11/10)
Length of Visible Light 11h 08m
Length of Day
10h 11m
Full, 100% of the Moon is Illuminated
Nov 10
Full
Nov 10
Full
Nov 18
Last Quarter
Nov 24
New
Dec 2
First Quarter

Hourly Weather History & Observations

Time (PST) Temp. Windchill Dew Point Humidity Pressure Visibility Wind Dir Wind Speed Gust Speed Precip Events Conditions
12:15 AM 23.0 °F - 21.2 °F 93% 30.31 in 10.0 mi Calm Calm - N/A   Unknown
12:35 AM 19.4 °F 14.3 °F 17.6 °F 93% 30.31 in 10.0 mi South 3.5 mph - N/A   Clear
12:55 AM 21.2 °F - 19.4 °F 93% 30.30 in 10.0 mi Calm Calm - N/A   Clear
1:15 AM 23.0 °F 18.4 °F 19.4 °F 86% 30.29 in 10.0 mi WNW 3.5 mph - N/A   Clear
1:35 AM 21.2 °F - 19.4 °F 93% 30.29 in 10.0 mi Calm Calm - N/A   Clear
1:55 AM 21.2 °F 14.9 °F 17.6 °F 86% 30.29 in 10.0 mi SE 4.6 mph - N/A   Clear
2:15 AM 19.4 °F - 17.6 °F 93% 30.29 in 10.0 mi Calm Calm - N/A   Clear
2:35 AM 23.0 °F - 19.4 °F 86% 30.29 in 10.0 mi Calm Calm - N/A   Clear
2:55 AM 21.2 °F - 19.4 °F 93% 30.28 in 10.0 mi Calm Calm - N/A   Clear
3:15 AM 19.4 °F - 19.4 °F 100% 30.28 in 10.0 mi Calm Calm - N/A   Clear
3:35 AM 19.4 °F - 17.6 °F 93% 30.28 in 8.0 mi Calm Calm - N/A   Clear
3:55 AM 19.4 °F - 19.4 °F 100% 30.28 in 0.8 mi Calm Calm - N/A   Mist
4:15 AM 19.4 °F - 17.6 °F 93% 30.28 in 1.0 mi Calm Calm - N/A   Clear
4:35 AM 17.6 °F - 15.8 °F 93% 30.28 in 0.8 mi Calm Calm - N/A   Mostly Cloudy
4:55 AM 17.6 °F - 15.8 °F 93% 30.29 in 1.5 mi Calm Calm - N/A   Scattered Clouds
5:15 AM 17.6 °F - 15.8 °F 93% 30.29 in 0.8 mi Calm Calm - N/A   Mostly Cloudy
5:35 AM 17.6 °F - 15.8 °F 93% 30.29 in 0.2 mi Calm Calm - N/A Fog Light Freezing Fog
6:45 AM 14.0 °F 6.5 °F 12.2 °F 93% 30.30 in 10.0 mi East 4.6 mph - N/A   Scattered Clouds
7:50 AM 19.4 °F - 17.6 °F 93% 30.31 in 10.0 mi Calm Calm - N/A   Scattered Clouds
8:45 AM 24.8 °F - 23.0 °F 93% 30.29 in 10.0 mi Calm Calm - N/A   Scattered Clouds
9:45 AM 28.4 °F - 26.6 °F 93% 30.27 in 10.0 mi Calm Calm - N/A   Scattered Clouds
10:45 AM 33.8 °F - 26.6 °F 75% 30.24 in 10.0 mi Calm Calm - N/A   Clear
11:45 AM 39.2 °F - 26.6 °F 61% 30.21 in 10.0 mi Calm Calm - N/A   Scattered Clouds
12:45 PM 44.6 °F - 23.0 °F 43% 30.17 in 10.0 mi Calm Calm - N/A   Scattered Clouds
1:55 PM 50.0 °F - 21.2 °F 32% 30.12 in 10.0 mi NNW 4.6 mph - N/A   Scattered Clouds
2:50 PM 50.0 °F - 19.4 °F 30% 30.13 in 10.0 mi NNE 6.9 mph - N/A   Scattered Clouds
3:45 PM 50.0 °F - 17.6 °F 28% 30.12 in 10.0 mi NNE 4.6 mph - N/A   Partly Cloudy
4:45 PM 42.8 °F 41.1 °F 21.2 °F 42% 30.12 in 10.0 mi East 3.5 mph - N/A   Clear
4:55 PM 39.2 °F 35.9 °F 23.0 °F 52% 30.12 in 10.0 mi ENE 4.6 mph - N/A   Clear
5:15 PM 35.6 °F - 23.0 °F 60% 30.12 in 10.0 mi Calm Calm - N/A   Clear
5:35 PM 32.0 °F - 24.8 °F 75% 30.13 in 10.0 mi Calm Calm - N/A   Clear
5:55 PM 32.0 °F 28.7 °F 23.0 °F 69% 30.14 in 10.0 mi SSE 3.5 mph - N/A   Clear
6:15 PM 30.2 °F - 23.0 °F 75% 30.14 in 10.0 mi Calm Calm - N/A   Clear
6:35 PM 32.0 °F - 23.0 °F 69% 30.14 in 10.0 mi Calm Calm - N/A   Clear
6:55 PM 30.2 °F - 23.0 °F 75% 30.13 in 10.0 mi Calm Calm - N/A   Clear
7:15 PM 28.4 °F - 21.2 °F 74% 30.14 in 10.0 mi Calm Calm - N/A   Clear
7:35 PM 26.6 °F - 21.2 °F 80% 30.13 in 8.0 mi Calm Calm - N/A   Clear
7:55 PM 26.6 °F 22.6 °F 19.4 °F 74% 30.13 in 10.0 mi WSW 3.5 mph - N/A   Clear
8:15 PM 26.6 °F - 19.4 °F 74% 30.13 in 10.0 mi Calm Calm - N/A   Clear
8:35 PM 26.6 °F - 19.4 °F 74% 30.13 in 10.0 mi Calm Calm - N/A   Clear
8:55 PM 24.8 °F 20.5 °F 19.4 °F 80% 30.13 in 10.0 mi West 3.5 mph - N/A   Clear
9:15 PM 24.8 °F - 17.6 °F 74% 30.12 in 10.0 mi Calm Calm - N/A   Clear
9:35 PM 23.0 °F - 17.6 °F 80% 30.12 in 10.0 mi Calm Calm - N/A   Clear
9:55 PM 24.8 °F 20.5 °F 19.4 °F 80% 30.12 in 10.0 mi SE 3.5 mph - N/A   Clear
10:15 PM 23.0 °F - 17.6 °F 80% 30.12 in 10.0 mi Calm Calm - N/A   Clear
10:55 PM 23.0 °F - 19.4 °F 86% 30.10 in 10.0 mi Calm Calm - N/A   Clear
11:15 PM 23.0 °F - 17.6 °F 80% 30.09 in 10.0 mi Calm Calm - N/A   Clear
11:35 PM 21.2 °F - 17.6 °F 86% 30.09 in 10.0 mi Calm Calm - N/A   Clear
11:55 PM 23.0 °F - 17.6 °F 80% 30.09 in 10.0 mi Calm Calm - N/A   Clear